Ludington, MI

5:00 PM EST on November 11, 2019 (GMT -0500)
Mason County

Weather History for KLDM - October, 2019

Change the Weather History Date:

Wednesday, October 16, 2019

  Actual Average Record
Temperature  
Mean Temperature 46 °F -  
Max Temperature 49 °F 58 °F 79 °F (1968)
Min Temperature 44 °F 40 °F 27 °F (1991)
Degree Days  
Heating Degree Days 18    
Moisture  
Dew Point 42 °F    
Average Humidity 84    
Maximum Humidity 96    
Minimum Humidity 63    
Precipitation  
Precipitation 0.24 in - - ()
Sea Level Pressure  
Sea Level Pressure 29.73 in    
Wind  
Wind Speed 15 mph (NNW)    
Max Wind Speed 25 mph    
Max Gust Speed 38 mph    
Visibility 9 miles    
Events Rain    
Averages and records for this station are not official NWS values.
T = Trace of Precipitation, MM = Missing Value Source: NWS Daily Summary

Daily Weather History Graph

Daily Weather History Graph

Search for Another Location

Airport or City:

Astronomy

Oct. 16, 2019 Rise Set
Actual Time 8:01 AM EDT 7:00 PM EDT
Civil Twilight 7:32 AM EDT 7:29 PM EDT
Nautical Twilight 6:58 AM EDT 8:03 PM EDT
Astronomical Twilight 6:25 AM EDT 8:36 PM EDT
Moon 8:48 PM EDT (10/16) 10:35 AM EDT (10/16)
Length of Visible Light 11h 57m
Length of Day
10h 59m
Waning Gibbous, 93% of the Moon is Illuminated
Oct 16
Waning Gibbous
Oct 21
Last Quarter
Oct 27
New
Nov 4
First Quarter
Nov 12
Full

Hourly Weather History & Observations

Time (EDT) Temp. Windchill Dew Point Humidity Pressure Visibility Wind Dir Wind Speed Gust Speed Precip Events Conditions
12:16 AM 49.1 °F - 43.5 °F 81% 29.64 in 10.0 mi West 11.5 mph 18.4 mph N/A   Overcast
12:35 AM 48.7 °F - 42.8 °F 80% 29.64 in 10.0 mi West 9.2 mph 18.4 mph N/A   Overcast
12:55 AM 48.6 °F - 42.3 °F 79% 29.63 in 10.0 mi West 12.7 mph 19.6 mph N/A   Overcast
1:19 AM 48.2 °F - 42.3 °F 80% 29.63 in 10.0 mi West 10.4 mph 21.9 mph N/A   Overcast
1:36 AM 48.2 °F - 42.1 °F 79% 29.63 in 10.0 mi West 9.2 mph 16.1 mph N/A   Overcast
1:55 AM 47.8 °F - 42.4 °F 82% 29.63 in 10.0 mi West 8.1 mph 18.4 mph N/A   Overcast
1:56 AM 47.8 °F - 42.4 °F 82% 29.63 in 10.0 mi West 10.4 mph 18.4 mph N/A   Overcast
2:15 AM 47.3 °F - 42.6 °F 84% 29.62 in 10.0 mi West 15.0 mph 23.0 mph N/A   Overcast
2:16 AM 47.3 °F - 42.4 °F 83% 29.62 in 10.0 mi West 15.0 mph 23.0 mph N/A   Overcast
2:35 AM 46.6 °F - 42.1 °F 84% 29.62 in 10.0 mi West 15.0 mph 23.0 mph N/A   Overcast
2:57 AM 45.9 °F 39.7 °F 42.3 °F 87% 29.62 in 10.0 mi West 13.8 mph 21.9 mph N/A   Overcast
3:16 AM 45.0 °F 38.5 °F 43.0 °F 93% 29.62 in 5.0 mi West 13.8 mph 23.0 mph N/A   Overcast
3:35 AM 45.0 °F 37.6 °F 42.8 °F 92% 29.60 in 7.0 mi WSW 17.3 mph 24.2 mph N/A   Overcast
3:36 AM 45.0 °F 37.6 °F 42.8 °F 92% 29.60 in 7.0 mi WSW 17.3 mph 24.2 mph N/A   Overcast
3:55 AM 45.5 °F 39.9 °F 44.4 °F 96% 29.59 in 4.0 mi WSW 11.5 mph 21.9 mph N/A   Heavy Drizzle
3:56 AM 45.5 °F 39.6 °F 44.4 °F 96% 29.59 in 4.0 mi WSW 12.7 mph 21.9 mph 0.01 in Rain Heavy Rain
4:19 AM 47.1 °F - 46.0 °F 96% 29.57 in 10.0 mi NNW 9.2 mph - 0.01 in Rain Light Rain
4:37 AM 48.2 °F - 46.8 °F 95% 29.57 in 10.0 mi NNW 13.8 mph 20.7 mph 0.02 in Rain Light Rain
4:55 AM 47.7 °F - 45.9 °F 93% 29.58 in 10.0 mi NNW 10.4 mph 23.0 mph 0.02 in   Drizzle
4:56 AM 47.7 °F - 45.9 °F 93% 29.58 in 10.0 mi NNW 15.0 mph 23.0 mph 0.02 in   Drizzle
5:15 AM 47.3 °F - 45.5 °F 93% 29.59 in 10.0 mi NNW 15.0 mph 25.3 mph N/A   Overcast
5:16 AM 47.3 °F - 45.5 °F 93% 29.59 in 10.0 mi NNW 17.3 mph 25.3 mph N/A   Overcast
5:35 AM 46.8 °F - 45.1 °F 94% 29.59 in 10.0 mi NW 11.5 mph 23.0 mph 0.01 in Rain Light Rain
5:40 AM 46.6 °F - 45.0 °F 94% 29.59 in 10.0 mi NW 15.0 mph 25.3 mph 0.01 in Rain Light Rain
5:58 AM 46.6 °F - 44.8 °F 93% 29.60 in 10.0 mi NW 15.0 mph 24.2 mph 0.02 in Rain Light Rain
6:16 AM 46.4 °F 40.1 °F 44.6 °F 93% 29.60 in 10.0 mi NW 15.0 mph 28.8 mph 0.01 in Rain Light Rain
6:35 AM 46.4 °F 39.8 °F 44.6 °F 93% 29.61 in 7.0 mi NW 16.1 mph 27.6 mph 0.02 in Rain Light Rain
6:36 AM 46.4 °F 39.0 °F 44.6 °F 93% 29.61 in 7.0 mi NW 19.6 mph 28.8 mph 0.02 in Rain Light Rain
6:55 AM 46.4 °F 40.1 °F 44.2 °F 92% 29.61 in 7.0 mi NW 15.0 mph 29.9 mph 0.02 in Rain Light Rain
6:56 AM 46.4 °F 40.1 °F 44.4 °F 93% 29.61 in 7.0 mi NW 15.0 mph 29.9 mph 0.02 in Rain Light Rain
7:19 AM 46.6 °F - 44.8 °F 93% 29.61 in 10.0 mi NNW 17.3 mph 34.5 mph N/A Rain Light Rain
7:37 AM 46.6 °F - 45.0 °F 94% 29.61 in 5.0 mi NNW 18.4 mph 29.9 mph 0.01 in Rain Light Rain
7:55 AM 46.6 °F - 44.8 °F 93% 29.62 in 7.0 mi NNW 20.7 mph 35.7 mph 0.01 in Rain Light Rain
8:15 AM 46.6 °F - 44.6 °F 93% 29.62 in 10.0 mi NNW 18.4 mph 33.4 mph N/A Rain Light Rain
8:16 AM 46.6 °F - 44.6 °F 93% 29.62 in 10.0 mi NNW 18.4 mph 32.2 mph N/A Rain Light Rain
8:35 AM 46.6 °F - 44.6 °F 93% 29.63 in 7.0 mi NNW 17.3 mph 38.0 mph 0.01 in Rain Light Rain
8:40 AM 46.4 °F 39.0 °F 44.8 °F 94% 29.63 in 5.0 mi NNW 19.6 mph 29.9 mph 0.01 in Rain Light Rain
8:58 AM 46.4 °F 39.2 °F 44.2 °F 92% 29.63 in 5.0 mi North 18.4 mph 36.8 mph 0.01 in Rain Light Rain
9:16 AM 46.4 °F 37.9 °F 44.1 °F 92% 29.64 in 5.0 mi North 25.3 mph 36.8 mph N/A   Overcast
9:35 AM 46.9 °F - 43.5 °F 88% 29.65 in 10.0 mi North 19.6 mph 34.5 mph N/A Rain Light Rain
9:36 AM 46.9 °F - 43.3 °F 87% 29.65 in 10.0 mi NNW 19.6 mph 34.5 mph N/A Rain Light Rain
9:55 AM 46.8 °F - 43.0 °F 87% 29.66 in 10.0 mi NNW 20.7 mph 32.2 mph N/A   Overcast
9:56 AM 46.9 °F - 43.0 °F 86% 29.66 in 10.0 mi North 20.7 mph 32.2 mph N/A   Overcast
10:19 AM 47.3 °F - 42.8 °F 84% 29.67 in 10.0 mi North 23.0 mph 31.1 mph N/A   Overcast
10:37 AM 47.3 °F - 42.4 °F 83% 29.68 in 10.0 mi North 23.0 mph 33.4 mph N/A Rain Light Rain
10:55 AM 47.7 °F - 41.7 °F 80% 29.69 in 10.0 mi North 18.4 mph 32.2 mph N/A   Overcast
11:15 AM 47.5 °F - 41.9 °F 81% 29.70 in 10.0 mi North 24.2 mph 34.5 mph N/A Rain Rain
11:16 AM 47.5 °F - 41.9 °F 81% 29.70 in 10.0 mi North 23.0 mph 34.5 mph N/A Rain Rain
11:35 AM 46.6 °F - 43.3 °F 88% 29.71 in 4.0 mi North 20.7 mph 38.0 mph N/A Rain Light Rain
11:40 AM 46.8 °F - 43.7 °F 89% 29.71 in 5.0 mi NNW 17.3 mph 29.9 mph N/A Rain Light Rain
11:58 AM 46.8 °F - 43.7 °F 89% 29.72 in 5.0 mi North 20.7 mph 29.9 mph 0.01 in   Unknown
12:16 PM 46.8 °F - 43.2 °F 87% 29.73 in 5.0 mi North 21.9 mph 28.8 mph 0.01 in Rain Light Rain
12:35 PM 46.9 °F - 43.0 °F 86% 29.74 in 10.0 mi North 17.3 mph 34.5 mph 0.01 in Rain Light Rain
12:55 PM 46.9 °F - 43.7 °F 88% 29.75 in 5.0 mi NNW 21.9 mph 33.4 mph 0.01 in Rain Light Rain
12:56 PM 47.1 °F - 43.5 °F 87% 29.75 in 5.0 mi NNW 19.6 mph 33.4 mph 0.01 in Rain Light Rain
1:19 PM 47.1 °F - 43.5 °F 87% 29.76 in 5.0 mi North 18.4 mph 28.8 mph 0.01 in Rain Rain
1:37 PM 46.4 °F 39.0 °F 43.7 °F 90% 29.76 in 4.0 mi North 19.6 mph 27.6 mph 0.03 in   Unknown
1:55 PM 46.6 °F - 43.0 °F 87% 29.76 in 5.0 mi North 20.7 mph 29.9 mph 0.04 in Rain Light Rain
2:15 PM 47.5 °F - 42.8 °F 84% 29.77 in 10.0 mi North 21.9 mph 27.6 mph 0.01 in Rain Light Rain
2:16 PM 47.5 °F - 42.8 °F 84% 29.77 in 10.0 mi North 20.7 mph 27.6 mph 0.01 in Rain Light Rain
2:35 PM 47.3 °F - 43.9 °F 88% 29.78 in 10.0 mi North 17.3 mph 27.6 mph 0.01 in Rain Rain
2:58 PM 46.4 °F 39.5 °F 43.2 °F 88% 29.79 in 3.0 mi North 17.3 mph 31.1 mph 0.03 in   Unknown
3:16 PM 46.4 °F 39.2 °F 43.0 °F 88% 29.79 in 5.0 mi North 18.4 mph 27.6 mph 0.01 in Rain Light Rain
3:35 PM 46.8 °F - 43.0 °F 87% 29.80 in 7.0 mi North 18.4 mph 28.8 mph 0.02 in Rain Light Rain
3:55 PM 46.8 °F - 43.2 °F 87% 29.81 in 7.0 mi North 11.5 mph 23.0 mph 0.03 in Rain Light Rain
3:56 PM 46.6 °F - 43.2 °F 88% 29.81 in 7.0 mi North 15.0 mph 23.0 mph 0.03 in Rain Light Rain
4:19 PM 48.7 °F - 41.2 °F 75% 29.82 in 10.0 mi North 13.8 mph 27.6 mph N/A   Overcast
4:37 PM 46.9 °F - 41.4 °F 81% 29.83 in 7.0 mi NNW 16.1 mph 33.4 mph N/A Rain Light Rain
4:55 PM 48.6 °F - 41.0 °F 75% 29.83 in 10.0 mi NNW 20.7 mph 25.3 mph N/A   Overcast
5:15 PM 47.7 °F - 39.9 °F 75% 29.84 in 5.0 mi North 20.7 mph 26.5 mph 0.01 in Rain Light Rain
5:35 PM 47.3 °F - 39.9 °F 76% 29.84 in 10.0 mi North 19.6 mph 28.8 mph 0.01 in Rain Light Rain
5:58 PM 48.2 °F - 37.4 °F 66% 29.85 in 10.0 mi NNW 16.1 mph 28.8 mph 0.01 in   Overcast
6:16 PM 48.4 °F - 37.8 °F 67% 29.86 in 10.0 mi North 15.0 mph 28.8 mph N/A   Overcast
6:35 PM 46.6 °F - 40.3 °F 79% 29.86 in 7.0 mi North 12.7 mph 26.5 mph N/A Rain Rain
6:36 PM 46.4 °F 40.4 °F 40.3 °F 79% 29.86 in 10.0 mi North 13.8 mph 20.7 mph 0.01 in Rain Light Rain
6:55 PM 47.3 °F - 39.4 °F 74% 29.87 in 10.0 mi North 16.1 mph 25.3 mph 0.01 in   Overcast
6:56 PM 47.3 °F - 39.2 °F 73% 29.87 in 10.0 mi NNW 17.3 mph 26.5 mph 0.01 in   Overcast
7:19 PM 47.8 °F - 38.3 °F 70% 29.87 in 10.0 mi North 11.5 mph 19.6 mph N/A   Overcast
7:37 PM 47.5 °F - 39.9 °F 75% 29.88 in 10.0 mi NNW 13.8 mph 21.9 mph N/A Rain Light Rain
7:55 PM 47.8 °F - 39.9 °F 74% 29.88 in 10.0 mi NNW 16.1 mph 25.3 mph N/A Rain Light Rain
8:15 PM 47.8 °F - 39.0 °F 71% 29.89 in 10.0 mi North 13.8 mph 23.0 mph N/A   Overcast
8:16 PM 47.8 °F - 39.2 °F 72% 29.89 in 10.0 mi North 13.8 mph 23.0 mph N/A   Overcast
8:35 PM 48.2 °F - 38.3 °F 69% 29.90 in 10.0 mi NNW 13.8 mph 24.2 mph N/A   Overcast
8:40 PM 48.4 °F - 38.5 °F 69% 29.90 in 10.0 mi North 12.7 mph 21.9 mph N/A   Overcast
8:58 PM 47.5 °F - 38.5 °F 71% 29.90 in 10.0 mi NNW 16.1 mph 25.3 mph N/A   Overcast
9:16 PM 46.6 °F - 39.4 °F 76% 29.91 in 10.0 mi North 17.3 mph 24.2 mph N/A Rain Light Rain
9:35 PM 46.6 °F - 38.3 °F 73% 29.91 in 10.0 mi NNW 9.2 mph - N/A   Overcast
9:36 PM 46.6 °F - 38.5 °F 73% 29.91 in 10.0 mi NNW 10.4 mph - N/A   Overcast
9:55 PM 47.8 °F - 35.8 °F 63% 29.91 in 10.0 mi NNW 12.7 mph 21.9 mph N/A   Overcast
9:56 PM 47.8 °F - 35.8 °F 63% 29.91 in 10.0 mi NNW 12.7 mph 21.9 mph N/A   Overcast
10:19 PM 47.1 °F - 36.0 °F 65% 29.92 in 10.0 mi North 10.4 mph 20.7 mph N/A Rain Light Rain
10:37 PM 45.5 °F 40.8 °F 40.3 °F 82% 29.92 in 10.0 mi NNW 9.2 mph 17.3 mph N/A Rain Light Rain
10:55 PM 44.8 °F 40.4 °F 40.6 °F 85% 29.92 in 10.0 mi North 8.1 mph - 0.01 in Rain Light Rain
11:15 PM 44.4 °F 42.0 °F 40.5 °F 86% 29.92 in 10.0 mi North 4.6 mph - N/A   Overcast
11:16 PM 44.4 °F 42.9 °F 40.5 °F 86% 29.92 in 10.0 mi North 3.5 mph - N/A   Overcast
11:35 PM 45.0 °F 41.2 °F 39.7 °F 82% 29.92 in 10.0 mi North 6.9 mph - N/A   Light Drizzle
11:40 PM 45.1 °F 40.8 °F 38.8 °F 79% 29.92 in 10.0 mi North 8.1 mph - N/A   Light Drizzle
11:58 PM 45.5 °F 41.3 °F 37.6 °F 74% 29.92 in 10.0 mi NNW 8.1 mph - N/A   Overcast